Location: Gloden
(48.4833°N, 15.3167°E)
Time: 16:42:28
(UTC+00:00)

IRIDIUM 103 - Pass Details

Date: 15 December 2019
Orbit: 776 x 779 km, 86.4° (Epoch: 27 January)

Event Time Altitude Azimuth Distance (km) Brightness Sun altitude
Rises 04:56:22 0° 357° (N) 3,276 7.4 -16.8°
Reaches altitude 10° 04:58:44 10° 359° (N) 2,343 6.6 -16.4°
Maximum altitude 05:03:59 76° 85° (E) 807 4.5 -15.5°
Drops below altitude 10° 05:09:12 10° 172° (S) 2,323 7.1 -14.7°
Sets 05:11:32 0° 174° (S) 3,245 7.9 -14.4°
